FORMOSAT-7R

operational
NORAD ID: 58017 Int'l Des: 2023-155 Owner: TASA Country: TW
LEOCIRCULARRETROGRADESSO

Über FORMOSAT-7R

Beschreibung wird geladen...

Live-Position

3D-Globus wird geladen...

Nächste Überflüge

Höhenverlauf

Altitude vs Time

uPlot chart will show altitude changes over time

Zweizeiliger Elementsatz

1 58017U 23155B 26062.20116991 .00001862 00000-0 19521-3 0 9990
2 58017 97.8405 144.3502 0002477 86.8565 273.2937 14.90746387130436
Epoch: 3. März 2026 • Age: 32 hours

Aktueller Status

Höhe 617.5 km
Geschwindigkeit 7.55 km/s
Subsatellitenpunkt -52.50°S, 38.42°E
Startdatum 9. Okt. 2023
Alter 2.4 years
Typ other

Technische Details

Klassifizierung Payload
Masse 241.00 kg
Trockenmasse 241.00 kg
Gesamtmasse 241.00 kg
Länge 1.30 m
Durchmesser 1.00 m
Spannweite 3.50 m
Form Box + pan
Hersteller TASA
Bus-Typ TRITON
Phasenstatus In Orbit
Besitzer/Staat TASA/TW

Große Konstellationen

Loading constellations...